This is the latest recevied weather packets stored in our database for station/object JS2QVS-13. If no packets are shown the sender has not sent any weather packets the latest 1 day(s).
| Time | Temp. | Humidity | Pressure | Rain* | Wind** | Luminosity | Snow |
|---|---|---|---|---|---|---|---|
| 1778025462 | 19.44° C | 62% | 1018.2 hPa | 0 mm | 2.68 m/s, 70° | - | - |
| 1778024862 | 19.44° C | 62% | 1018.1 hPa | 0 mm | 3.13 m/s, 68° | - | - |
| 1778024262 | 19.44° C | 61% | 1018.1 hPa | 0 mm | 2.68 m/s, 67° | - | - |
| 1778023662 | 19.44° C | 62% | 1018.2 hPa | 0 mm | 2.24 m/s, 61° | - | - |
| 1778023062 | 18.89° C | 62% | 1018.3 hPa | 0 mm | 2.68 m/s, 70° | - | - |
| 1778022461 | 18.89° C | 62% | 1018.4 hPa | 0 mm | 3.58 m/s, 72° | - | - |
| 1778021861 | 18.89° C | 63% | 1018.5 hPa | 0 mm | 3.58 m/s, 66° | - | - |
| 1778021261 | 18.33° C | 63% | 1018.5 hPa | 0 mm | 3.13 m/s, 63° | - | - |
| 1778020661 | 18.33° C | 63% | 1018.6 hPa | 0 mm | 2.68 m/s, 56° | - | - |
| 1778020062 | 18.33° C | 63% | 1018.5 hPa | 0 mm | 2.68 m/s, 51° | - | - |
| 1778019462 | 18.33° C | 63% | 1018.3 hPa | 0 mm | 2.24 m/s, 65° | - | - |
| 1778018862 | 17.78° C | 63% | 1017.9 hPa | 0 mm | 3.13 m/s, 71° | - | - |
| 1778018262 | 17.78° C | 63% | 1018 hPa | 0 mm | 3.13 m/s, 68° | - | - |
| 1778017662 | 17.78° C | 63% | 1018.1 hPa | 0 mm | 2.68 m/s, 66° | - | - |
| 1778017062 | 17.22° C | 63% | 1018 hPa | 0 mm | 3.13 m/s, 67° | - | - |
| 1778016461 | 17.78° C | 62% | 1018 hPa | 0 mm | 2.68 m/s, 62° | - | - |
| 1778015862 | 17.22° C | 63% | 1018 hPa | 0 mm | 3.13 m/s, 69° | - | - |
| 1778015262 | 17.22° C | 62% | 1017.8 hPa | 0 mm | 3.58 m/s, 67° | - | - |
| 1778014662 | 17.22° C | 62% | 1017.9 hPa | 0 mm | 2.24 m/s, 71° | - | - |
| 1778014062 | 17.22° C | 62% | 1017.9 hPa | 0 mm | 3.13 m/s, 70° | - | - |
| 1778013461 | 17.22° C | 61% | 1018.1 hPa | 0 mm | 3.58 m/s, 68° | - | - |
| 1778012861 | 17.22° C | 61% | 1018.3 hPa | 0 mm | 2.24 m/s, 61° | - | - |
| 1778012261 | 17.22° C | 61% | 1018.2 hPa | 0 mm | 2.68 m/s, 71° | - | - |
| 1778011661 | 17.22° C | 61% | 1018.1 hPa | 0 mm | 3.13 m/s, 69° | - | - |
| 1778011063 | 17.22° C | 61% | 1018.2 hPa | 0 mm | 2.24 m/s, 70° | - | - |
* Rain latest hour (hover to see other rain measurements)
** Current wind speed in m/s (hover to see current wind gust speed)